EW7372 Weather Reports


Display with metric or nautical units.
time (UTC)temp
F
wind
direction
speed
MPH
gust
MPH
rain 1hr
in
rain 24hr
in
rain mn
in
humidity
%
barometer
mb
20260504081527 55 266 0.0 0.0 0.00 0.00 0.00 64 1005.7
20260504050011 64 266 0.0 0.0 0.00 0.00 0.00 47 1005.8
20260504044510 65 266 0.0 0.0 0.00 0.00 0.00 46 1005.8
20260504043014 65 266 0.0 0.0 0.00 0.00 0.00 45 1005.8
20260504041509 66 263 0.0 0.0 0.00 0.00 0.00 44 1005.7
20260504040016 67 263 0.0 0.0 0.00 0.00 0.00 43 1005.7
20260504034508 68 263 0.0 0.0 0.00 0.00 0.00 42 1005.5
20260504033007 70 263 0.0 0.0 0.00 0.00 0.00 41 1005.4
20260504031510 72 263 0.0 0.0 0.00 0.00 0.00 38 1005.4
20260504030007 74 263 0.0 0.0 0.00 0.00 0.00 34 1005.4
20260504024506 77 263 0.0 0.0 0.00 0.00 0.00 31 1005.4
20260504023005 78 263 0.0 0.0 0.00 0.00 0.00 29 1005.4
20260504021505 80 263 0.0 0.0 0.00 0.00 0.00 25 1005.5
20260504020003 81 240 0.0 0.0 0.00 0.00 0.00 24 1005.6
20260504014501 83 275 0.0 0.0 0.00 0.00 0.00 22 1005.7
20260504013106 84 291 0.0 0.0 0.00 0.00 0.00 23 1005.9
20260504011600 85 275 0.0 0.0 0.00 0.00 0.00 21 1005.9
20260504010058 85 252 0.0 0.0 0.00 0.00 0.00 22 1006.1
20260504004554 84 242 0.0 0.0 0.00 0.00 0.00 22 1006.2
20260504003050 84 291 0.0 2.0 0.00 0.00 0.00 22 1006.4
20260504001550 83 309 0.0 0.0 0.00 0.00 0.00 23 1006.6
20260504000051 82 244 0.0 0.0 0.00 0.00 0.00 23 1006.7
20260503234544 82 231 0.0 0.0 0.00 0.00 0.00 23 1006.9
20260503233043 81 199 0.0 0.0 0.00 0.00 0.00 23 1007.0
20260503231541 83 336 0.0 1.0 0.00 0.00 0.00 23 1007.2
20260503230039 82 50 0.0 0.0 0.00 0.00 0.00 23 1007.5
20260503224539 82 337 0.0 2.0 0.00 0.00 0.00 23 1007.7
20260503223034 82 223 0.0 0.0 0.00 0.00 0.00 22 1008.0
20260503221533 82 255 0.0 0.0 0.00 0.00 0.00 22 1008.2
20260503220029 80 296 0.0 0.0 0.00 0.00 0.00 23 1008.3
20260503214538 79 306 0.0 0.0 0.00 0.00 0.00 23 1008.7
20260503213021 78 266 0.0 0.0 0.00 0.00 0.00 24 1008.9
20260503211516 77 248 0.0 0.0 0.00 0.00 0.00 24 1009.0
20260503210013 76 271 0.0 0.0 0.00 0.00 0.00 28 1009.4
20260503204510 76 257 0.0 0.0 0.00 0.00 0.00 27 1009.7
20260503203006 75 355 0.0 0.0 0.00 0.00 0.00 27 1009.9
20260503201506 75 304 0.0 3.0 0.00 0.00 0.00 27 1010.1
20260503200118 74 269 0.0 4.0 0.00 0.00 0.00 28 1010.3
20260503194604 74 246 0.0 0.0 0.00 0.00 0.00 28 1010.5
20260503193102 73 281 0.0 3.0 0.00 0.00 0.00 27 1010.6
20260503191559 73 286 0.0 0.0 0.00 0.00 0.00 29 1010.8
20260503190050 72 348 0.0 1.0 0.00 0.00 0.00 31 1011.0
20260503184558 71 263 0.0 0.0 0.00 0.00 0.00 34 1011.1
20260503183044 70 337 0.0 0.0 0.00 0.00 0.00 36 1011.2
20260503181557 70 250 0.0 0.0 0.00 0.00 0.00 40 1011.3
20260503180048 68 278 0.0 0.0 0.00 0.00 0.00 42 1011.4
20260503174544 67 278 0.0 0.0 0.00 0.00 0.00 46 1011.7
20260503173039 66 279 0.0 0.0 0.00 0.00 0.00 47 1011.8
20260503171525 65 320 0.0 0.0 0.00 0.00 0.00 51 1011.9